Location: Unspecified
(51.5147°N, 7.4673°E)
Time: 20:13:06
(UTC+01:00)

A-11 Canister half - Pass Details

Date: 18 February 2026
Orbit: 1512 x 1687 km, 47.2° (Epoch: 8 March)

Event Time Altitude Azimuth Distance (km) Brightness Sun altitude
Rises 19:25:14 0° 186° (S) 4,928 11.7 -15.3°
Reaches altitude 10° 19:29:36 10° 170° (S) 3,943 11.0 -16.0°
Maximum altitude 19:36:07 20° 129° (SE) 3,232 10.2 -17.0°
Enters shadow 19:37:44 19° 117° (ESE) 3,276 10.2 -17.3°
Drops below altitude 10° 19:42:34 10° 89° (E) 3,913 - -18.0°
Sets 19:46:49 0° 73° (ENE) 4,880 - -18.7°
